Weather Roundup
Issued by NWS

Home | Current Version | Previous Version | Text Only | Print | Product List | Glossary On
Versions: 1 2 3 4 5 6 7 8 9 10 11 12 13 14 15 16 17 18 19 20 21 22 23 24 25 26 27 28 29 30 31 32 33 34 35 36 37 38 39 40 41 42 43 44 45 46 47 48 49 50
000
NZUS93 KARX 260010
HRRWXR

CURRENT HOURLY OBSERVATIONS ACROSS
MUCH OF THE UPPER MISSISSIPPI VALLEY
NATIONAL WEATHER SERVICE LA CROSSE WI
700 PM CDT SAT OCT 25 2014


...SOUTHEAST MINNESOTA...


CITY           SKY/WX    TMP DP  RH WIND       PRES   REMARKS
ROCHESTER      CLEAR     52  30  43 W6        30.05S
ROCHESTER/MAYO FAIR      57  26  30 W12       30.04S
WINONA         CLEAR     59  30  33 W7        30.01S
AUSTIN         CLEAR     54  32  43 NW8       30.06S
ALBERT LEA     CLEAR     55  30  38 NW5       30.06S
DODGE CENTER   CLEAR     54  30  40 NW9       30.05S
PRESTON        CLEAR     50  30  46 W8        30.04S
OWATONNA       CLEAR     52  28  40 CALM      30.06S
FARIBAULT      CLEAR     50  28  43 W6        30.06S
$$

...ELSEWHERE IN MINNESOTA...


CITY           SKY/WX    TMP DP  RH WIND       PRES   REMARKS
MINNEAPOLIS    CLEAR     54  25  32 W9        30.04S
INTNL FALLS    CLEAR     46  28  49 W6        29.94S
DULUTH         CLEAR     51  26  37 W14       29.95S
RED WING       CLEAR     55  25  30 NW6       30.01S
REDWOOD FALLS  CLEAR     57  29  34 NW5       30.08F
MANKATO        CLEAR     55  27  33 NW8       30.07S
WORTHINGTON    CLEAR     54  28  37 NE7       30.09F
FAIRMONT       CLEAR     54  10  17 NW6       30.08S
$$

...SOUTHWEST WISCONSIN...


CITY           SKY/WX    TMP DP  RH WIND       PRES   REMARKS
LA CROSSE      CLEAR     56  31  38 W9        30.00R
PRAIRIE DU CHI CLEAR     58  27  31 W8        30.01R
BOSCOBEL       CLEAR     61  25  25 NW5       30.00R
LONE ROCK      CLEAR     62  27  26 W9        29.98R
PLATTEVILLE    CLEAR     56  30  36 W6        30.01R
FORT MC COY    CLEAR     56  24  29 W7        29.99S
VIROQUA        FAIR      53  27  36 NW8       30.00S
WIS DELLS      CLEAR     55  25  31 W8        29.97R
$$

...ELSEWHERE IN WISCONSIN...


CITY           SKY/WX    TMP DP  RH WIND       PRES   REMARKS
MILWAUKEE      CLEAR     62  24  23 NW13      29.91R
MADISON        CLEAR     58  27  30 W3        29.96R
GREEN BAY      CLEAR     56  30  37 W10       29.86R
EAU CLAIRE     CLEAR     55  26  32 W12       29.98R
BLACK RVR FLS  FAIR      53  27  36 W3        29.98R
MEDFORD        CLEAR     51  27  39 W9        29.93S
WAUSAU         CLEAR     52  26  36 W10       29.90R
WIS RAPIDS     CLEAR     55  27  34 W9        29.95R
MARSHFIELD     CLEAR     51  29  42 W9        29.94R
RICE LAKE      CLEAR     52  23  32 W8        30.00R
$$

...NORTHEAST IOWA...


CITY           SKY/WX    TMP DP  RH WIND       PRES   REMARKS
DECORAH        CLEAR     57  30  35 VRB3      30.03R
MASON CITY     CLEAR     51  33  50 NW8       30.08R
CHARLES CITY   CLEAR     54  32  43 NW9       30.06R
OELWEIN        CLEAR     52  36  54 NW8       30.04S
$$

...ELSEWHERE IN IOWA...


CITY           SKY/WX    TMP DP  RH WIND       PRES   REMARKS
DES MOINES     CLEAR     64  35  34 NE5       30.06S
IOWA CITY      CLEAR     54  41  61 W6        30.04S
FORT DODGE     CLEAR     50  37  62 CALM      30.07F
$$

...NORTHERN ILLINOIS...


CITY           SKY/WX    TMP DP  RH WIND       PRES   REMARKS
CHICAGO-OHARE  CLEAR     63  28  26 W13       29.93R
CHICAGO-MIDWAY CLEAR     67  27  22 W12       29.92R
MOLINE         CLEAR     62  34  35 NW7       30.00S
ROCKFORD       CLEAR     60  30  32 W10       29.99R
PEORIA         CLEAR     67  38  34 NW5       30.00S
$$

NOTE: "FAIR" INDICATES FEW OR NO CLOUDS BELOW 12,000 FEET WITH NO
SIGNIFICANT WEATHER AND/OR OBSTRUCTIONS TO VISIBILITY. WIND
SPEEDS ARE IN MILES-PER-HOUR.



USA.gov is the U.S. government's official web portal to all federal, state and local government web resources and services.